Weather History for KAUH - January, 2013

Change the Weather History Date:

Wednesday, January 2, 2013

  Actual Average Record
Temperature  
Mean Temperature 21 °F -  
Max Temperature 34 °F 31 °F 67 °F (1964)
Min Temperature 8 °F 11 °F -10 °F (1979)
Degree Days  
Heating Degree Days 44    
Moisture  
Dew Point 21 °F    
Average Humidity 83    
Maximum Humidity 91    
Minimum Humidity 75    
Precipitation  
Precipitation 0.00 in - - ()
Sea Level Pressure  
Sea Level Pressure 30.10 in    
Wind  
Wind Speed 10 mph (WNW)    
Max Wind Speed 18 mph    
Max Gust Speed 20 mph    
Visibility 10 miles    
Events Snow    
Averages and records for this station are not official NWS values.
T = Trace of Precipitation, MM = Missing Value Source: NWS Daily Summary

Daily Weather History Graph

Daily Weather History Graph

Search for Another Location

Airport or City:

Trip Planner

Search our weather history database for the weather conditions in past years. The results will help you decide how hot, cold, wet, or windy it might be!

Date:

Astronomy

Jan. 02, 2013 Rise Set
Actual Time 7:56 AM CST 5:15 PM CST
Civil Twilight 7:25 AM CST 5:46 PM CST
Nautical Twilight 6:51 AM CST 6:21 PM CST
Astronomical Twilight 6:18 AM CST 6:54 PM CST
Moon 10:52 PM CST (1/2) 10:36 AM CST (1/2)
Length of Visible Light 10h 20m
Length of Day
9h 19m
Waning Gibbous, 75% of the Moon is Illuminated
Jan 2
Waning Gibbous
Jan 4
Last Quarter
Jan 11
New
Jan 18
First Quarter
Jan 26
Full

Hourly Weather History & Observations

Time (CST) Temp. Windchill Dew Point Humidity Pressure Visibility Wind Dir Wind Speed Gust Speed Precip Events Conditions
12:15 AM 13.3 °F -1.8 °F 8.8 °F 82% 30.06 in 10.0 mi WSW 13.8 mph - N/A   Clear
12:35 AM 12.7 °F -2.5 °F 8.4 °F 83% 30.06 in 10.0 mi WSW 13.8 mph - N/A   Clear
12:55 AM 13.1 °F -1.4 °F 8.4 °F 82% 30.06 in 10.0 mi WSW 12.7 mph - N/A   Clear
1:15 AM 12.4 °F -1.6 °F 7.7 °F 82% 30.06 in 10.0 mi WSW 11.5 mph - N/A   Clear
1:35 AM 12.6 °F -1.4 °F 7.7 °F 81% 30.05 in 10.0 mi SW 11.5 mph - N/A   Clear
1:55 AM 12.0 °F -1.3 °F 7.3 °F 81% 30.05 in 10.0 mi WSW 10.4 mph - N/A   Clear
2:15 AM 11.3 °F -2.2 °F 6.8 °F 82% 30.05 in 10.0 mi WSW 10.4 mph - N/A   Clear
2:35 AM 9.9 °F -3.1 °F 5.5 °F 83% 30.05 in 10.0 mi WSW 9.2 mph - N/A   Clear
2:55 AM 10.2 °F -2.7 °F 5.7 °F 82% 30.05 in 10.0 mi SW 9.2 mph - N/A   Clear
3:35 AM 9.5 °F -2.6 °F 5.2 °F 83% 30.03 in 10.0 mi WSW 8.1 mph - N/A   Clear
3:55 AM 8.4 °F -3.9 °F 4.1 °F 83% 30.03 in 10.0 mi WSW 8.1 mph - N/A   Clear
4:15 AM 8.8 °F -1.1 °F 5.0 °F 85% 30.03 in 10.0 mi WSW 5.8 mph - N/A   Clear
4:35 AM 9.9 °F -2.2 °F 5.9 °F 84% 30.03 in 10.0 mi WSW 8.1 mph - N/A   Clear
4:55 AM 10.4 °F 0.8 °F 6.4 °F 84% 30.03 in 10.0 mi West 5.8 mph - N/A   Clear
5:15 AM 11.7 °F 0.0 °F 7.3 °F 83% 30.03 in 10.0 mi West 8.1 mph - N/A   Clear
5:35 AM 11.7 °F -1.7 °F 7.5 °F 83% 30.04 in 10.0 mi West 10.4 mph - N/A   Clear
6:15 AM 17.2 °F 4.5 °F 12.2 °F 81% 30.04 in 10.0 mi WNW 11.5 mph - N/A   Overcast
6:35 AM 18.5 °F 6.8 °F 13.6 °F 81% 30.04 in 10.0 mi WNW 10.4 mph - N/A   Overcast
6:55 AM 19.4 °F 7.9 °F 14.5 °F 81% 30.05 in 10.0 mi WNW 10.4 mph - N/A   Overcast
7:15 AM 20.1 °F 8.8 °F 15.4 °F 82% 30.05 in 10.0 mi WNW 10.4 mph - N/A   Overcast
7:35 AM 21.0 °F 9.3 °F 16.5 °F 83% 30.06 in 10.0 mi WNW 11.5 mph - N/A Snow Light Snow
7:55 AM 22.1 °F 11.3 °F 18.3 °F 85% 30.05 in 5.0 mi WNW 10.4 mph - N/A Snow Light Snow
8:15 AM 22.6 °F 12.6 °F 19.6 °F 88% 30.05 in 10.0 mi WNW 9.2 mph - N/A   Overcast
8:35 AM 23.9 °F 12.9 °F 21.0 °F 89% 30.05 in 10.0 mi WNW 11.5 mph - N/A Snow Light Snow
8:55 AM 24.4 °F 14.2 °F 22.1 °F 91% 30.06 in 3.0 mi WNW 10.4 mph - N/A Snow Light Snow
9:15 AM 26.2 °F 17.1 °F 23.9 °F 91% 30.08 in 7.0 mi WNW 9.2 mph - N/A Snow Light Snow
9:35 AM 26.8 °F 18.5 °F 24.4 °F 91% 30.08 in 10.0 mi West 8.1 mph - N/A   Overcast
9:55 AM 27.3 °F 18.4 °F 24.8 °F 90% 30.09 in 10.0 mi West 9.2 mph - N/A   Overcast
10:15 AM 27.9 °F 19.8 °F 25.2 °F 90% 30.09 in 10.0 mi West 8.1 mph - N/A   Overcast
10:35 AM 28.6 °F 19.9 °F 25.7 °F 89% 30.09 in 10.0 mi West 9.2 mph - N/A   Overcast
10:55 AM 29.5 °F 22.5 °F 26.4 °F 88% 30.10 in 10.0 mi West 6.9 mph - N/A   Overcast
11:15 AM 30.4 °F 22.2 °F 26.8 °F 86% 30.10 in 10.0 mi West 9.2 mph - N/A   Overcast
11:35 AM 31.1 °F 22.4 °F 27.3 °F 86% 30.09 in 10.0 mi WNW 10.4 mph - N/A   Overcast
11:55 AM 32.0 °F 24.2 °F 27.5 °F 83% 30.08 in 10.0 mi WNW 9.2 mph - N/A   Overcast
12:15 PM 32.2 °F 24.4 °F 27.9 °F 84% 30.08 in 10.0 mi WNW 9.2 mph - N/A   Overcast
12:35 PM 32.9 °F 25.9 °F 28.2 °F 83% 30.07 in 10.0 mi WNW 8.1 mph - N/A   Overcast
12:55 PM 33.4 °F 25.4 °F 28.8 °F 83% 30.07 in 10.0 mi WNW 10.4 mph - N/A   Overcast
1:15 PM 33.8 °F 25.3 °F 28.9 °F 82% 30.07 in 10.0 mi WNW 11.5 mph - N/A   Overcast
1:35 PM 34.0 °F 26.0 °F 28.8 °F 81% 30.06 in 10.0 mi WNW 10.4 mph - N/A   Overcast
1:55 PM 34.3 °F 25.9 °F 28.4 °F 79% 30.06 in 10.0 mi NW 11.5 mph - N/A   Overcast
2:15 PM 34.3 °F 23.5 °F 27.9 °F 77% 30.07 in 10.0 mi NW 18.4 mph - N/A   Overcast
2:35 PM 34.0 °F 24.6 °F 27.5 °F 77% 30.07 in 10.0 mi NW 13.8 mph - N/A   Overcast
2:55 PM 33.8 °F 25.8 °F 27.5 °F 78% 30.08 in 10.0 mi NNW 10.4 mph - N/A   Overcast
3:15 PM 33.3 °F 25.7 °F 27.9 °F 81% 30.08 in 10.0 mi NNW 9.2 mph - N/A   Overcast
3:35 PM 33.4 °F 25.9 °F 28.0 °F 81% 30.09 in 10.0 mi NNW 9.2 mph - N/A   Overcast
3:55 PM 33.4 °F 23.1 °F 26.6 °F 76% 30.11 in 10.0 mi NNW 16.1 mph 19.6 mph N/A   Overcast
4:15 PM 33.1 °F 23.0 °F 26.2 °F 76% 30.11 in 10.0 mi NW 15.0 mph - N/A   Overcast
4:35 PM 32.9 °F 23.2 °F 25.9 °F 75% 30.12 in 10.0 mi NW 13.8 mph - N/A   Overcast
5:15 PM 32.4 °F 24.6 °F 25.7 °F 76% 30.13 in 10.0 mi NW 9.2 mph - N/A   Overcast
5:35 PM 32.0 °F 26.4 °F 26.6 °F 80% 30.13 in 10.0 mi NW 5.8 mph - N/A   Overcast
5:55 PM 31.8 °F 26.2 °F 27.0 °F 82% 30.13 in 10.0 mi NW 5.8 mph - N/A   Overcast
6:15 PM 31.8 °F 25.4 °F 26.6 °F 81% 30.14 in 10.0 mi NW 6.9 mph - N/A   Overcast
6:35 PM 31.6 °F 27.0 °F 26.6 °F 82% 30.15 in 10.0 mi WNW 4.6 mph - N/A   Overcast
6:55 PM 30.9 °F 27.5 °F 26.8 °F 85% 30.15 in 10.0 mi WNW 3.5 mph - N/A   Overcast
7:15 PM 30.7 °F 26.0 °F 27.0 °F 86% 30.16 in 10.0 mi West 4.6 mph - N/A   Overcast
7:35 PM 30.6 °F 25.8 °F 27.1 °F 87% 30.17 in 10.0 mi West 4.6 mph - N/A   Overcast
7:55 PM 31.1 °F 24.5 °F 27.0 °F 85% 30.17 in 10.0 mi WNW 6.9 mph - N/A   Overcast
8:15 PM 30.7 °F 26.0 °F 26.6 °F 85% 30.18 in 10.0 mi West 4.6 mph - N/A   Overcast
8:35 PM 30.0 °F 23.2 °F 26.2 °F 86% 30.18 in 10.0 mi NW 6.9 mph - N/A   Overcast
8:55 PM 31.1 °F 26.4 °F 26.1 °F 82% 30.18 in 10.0 mi NW 4.6 mph - N/A   Overcast
9:15 PM 30.2 °F 24.3 °F 25.7 °F 83% 30.18 in 10.0 mi WNW 5.8 mph - N/A   Overcast
9:35 PM 29.7 °F 22.8 °F 25.7 °F 85% 30.19 in 10.0 mi WNW 6.9 mph - N/A   Overcast
9:55 PM 29.7 °F 22.8 °F 26.1 °F 86% 30.20 in 10.0 mi WNW 6.9 mph - N/A   Overcast
10:15 PM 29.7 °F 22.8 °F 26.4 °F 88% 30.20 in 10.0 mi WNW 6.9 mph - N/A   Overcast
10:35 PM 30.4 °F 22.2 °F 26.6 °F 86% 30.21 in 10.0 mi WNW 9.2 mph - N/A   Overcast
10:55 PM 31.1 °F 21.4 °F 25.7 °F 80% 30.22 in 10.0 mi NW 12.7 mph - N/A   Overcast
11:15 PM 30.7 °F 21.4 °F 25.0 °F 79% 30.23 in 10.0 mi NNW 11.5 mph - N/A   Overcast
11:35 PM 28.9 °F 18.6 °F 24.3 °F 83% 30.24 in 10.0 mi NNW 12.7 mph - N/A   Overcast
11:55 PM 28.2 °F 17.2 °F 22.8 °F 80% 30.24 in 10.0 mi NW 13.8 mph - N/A   Mostly Cloudy